Torna al catalogo

STARLINK-31783

AttivoComunicazioniVLEO
NORAD 59750·PAYLOAD·🇺🇸 United States

Lanciato May 13, 2024 da Cape Canaveral Space Force Station

Loading…

Prossimi Passaggi (prossime 24 ore)

TLE

AggiornatoSource: CelesTrak SupGP

Epoca: Sep 15, 2026, 02:10 UTC

1 59750C 24090W   26258.09076389 -.00060972  00000+0 -22086-2 0  2589
2 59750  43.0000 194.2277 0001345 272.0830  38.3272 15.27605594    12

Traccia STARLINK-31783 in tempo reale con AllMySat

Download on the App Store